Location: Clanezzo
(45.7500°N, 9.6000°E)
Time: 04:18:44
(UTC+00:00)

Cosmos 2084 Rocket - Pass Details

Date: 12 May 2021
Orbit: 521 x 659 km, 62.8° (Epoch: 18 June)

Event Time Altitude Azimuth Distance (km) Brightness Sun altitude
Rises 22:00:27 0° 320° (NW) 2,779 8.1 -23.5°
Reaches altitude 10° 22:02:38 10° 320° (NW) 1,900 7.0 -23.6°
Enters shadow 22:06:51 86° 293° (WNW) 605 3.4 -23.9°
